Flag for Venezuela Weather past 2 weeks in Barquisimeto, Venezuela

Now
68 °F

Passing clouds.


Feels Like: 68 °F
Forecast: 69 / 93 °F
Wind: 69 mph from Northwest

Location: Barquisimeto Airport

Current Time: Jul 30, 2014 at 4:36:24 AM

Latest Report: Jul 30, 2014 at 1:30 AM


Visibility: N/A

Pressure: 30.07 "Hg

Humidity: 94%

Dew point: 66 °F

Location of BarquisimetoLocation

Historic Weather in Barquisimeto — Graph

°F

Barquisimeto temperature yesterday

Maximum temperature yesterday: 82 °F (at 3:30 PM)
Minimum temperature yesterday: 70 °F (at 9:30 PM)
Average temperature yesterday: 75 °F

Past Weeks' High & Low Weather Summary

 TemperatureHumidityPressure
High91 °F (Jul 23, 8:30 AM)100% (Jul 15, 5:30 AM)30.12 "Hg (Jul 15, 5:30 AM)
Low68 °F (Jul 16, 7:30 AM)37% (Jul 23, 11:30 AM)29.83 "Hg (Jul 22, 11:30 AM)
Average76 °F80%30.05 "Hg
* Reported Jul 15 4:30 AM — Jul 30 1:30 AM, Barquisimeto, Weather by CustomWeather, © 2014

Note: Actual official high and low records may vary slightly from our data, if they occured in-between our weather recording intervals... More about our weather records

Advertising

Barquisimeto weather history for previous 24 hours

 ConditionsComfort  
Time TempWeatherWind HumidityBarometerVisibility
1:30 AM
Jul 30
68 °FPassing clouds.69 mph94%30.07 "HgN/A
10:30 PM
Jul 29
70 °FPassing clouds.5 mph88%30.07 "HgN/A
9:30 PM70 °FPassing clouds.7 mph94%30.07 "HgN/A
8:30 PM72 °FPassing clouds.9 mph94%30.04 "HgN/A
7:30 PM73 °FOvercast.6 mph83%30.04 "HgN/A
6:30 PM75 °FPassing clouds.25 mph78%30.01 "HgN/A
5:30 PM79 °FBroken clouds.12 mph74%29.98 "HgN/A
4:30 PM81 °FScattered clouds.9 mph66%29.98 "HgN/A
3:30 PM82 °FBroken clouds.14 mph62%30.01 "HgN/A
2:30 PM79 °FPartly sunny.12 mph70%30.09 "HgN/A
1:30 PM81 °FBroken clouds.10 mph66%30.04 "HgN/A
12:30 PM79 °FBroken clouds.10 mph70%30.04 "HgN/A
11:30 AM75 °FPartly sunny.12 mph83%30.07 "HgN/A
10:30 AM79 °FPartly sunny.8 mph74%30.07 "HgN/A
9:30 AM77 °FPartly sunny.9 mph74%30.07 "HgN/A
8:30 AM73 °FFog.5 mph89%30.07 "Hg5 mi
7:30 AM72 °FFog.6 mph94%30.07 "Hg4 mi
6:30 AM72 °FFog.7 mph94%30.07 "Hg1 mi
5:30 AM72 °FFog.5 mph94%30.07 "Hg4 mi
4:30 AM72 °FFog.3 mph94%30.07 "Hg4 mi
Weather by CustomWeather, © 2014

See weather overviewHow to use our weather pages